�N����,����,�~����,�C��,���x,�C��,����,���ϕ���,�ő�u�ԕ���,�ő厞����,���˗�,�I�_���x,�n�����x,�ő啗���N��,DTYPE
"16/10/03","00:10",0.0,24.2,94.4,1009.3,245.4,0.0,0.3,300.2,0.00,23.3,25.5,"00:07:20",1
"16/10/03","00:20",0.0,24.3,94.6,1009.3,298.5,0.0,0.3,293.4,0.00,23.4,25.1,"00:14:16",1
"16/10/03","00:30",0.0,24.3,94.7,1009.0,278.1,0.0,0.3,277.2,0.00,23.4,25.2,"00:20:16",1
"16/10/03","00:40",0.0,24.2,94.8,1009.0,332.7,0.0,0.3,347.8,0.00,23.4,25.1,"00:31:36",1
"16/10/03","00:50",0.0,24.2,94.9,1009.0,282.2,0.1,0.3,272.3,0.00,23.4,25.3,"00:41:04",1
"16/10/03","01:00",0.0,24.2,94.9,1009.3,317.1,0.0,0.3,327.1,0.00,23.4,25.3,"00:53:20",1
"16/10/03","01:10",0.0,24.1,95.0,1009.5,332.1,0.1,0.4,347.7,0.00,23.3,25.2,"01:06:00",1
"16/10/03","01:20",0.0,24.1,95.1,1009.3,323.8,0.1,0.8,1.1,0.00,23.3,25.2,"01:12:40",1
"16/10/03","01:30",0.0,24.0,95.1,1009.0,307.9,0.0,0.3,287.7,0.00,23.2,24.9,"01:22:16",1
"16/10/03","01:40",0.0,24.0,95.2,1009.0,355.3,0.0,0.3,325.4,0.00,23.2,25.0,"01:32:00",1
"16/10/03","01:50",0.0,24.0,95.3,1009.0,342.0,0.2,0.6,21.2,0.00,23.2,25.1,"01:49:52",1
"16/10/03","02:00",0.0,23.9,95.4,1008.8,331.4,0.3,0.6,358.8,0.00,23.2,25.1,"01:50:08",1
"16/10/03","02:10",0.0,23.9,95.4,1008.3,316.3,0.1,0.5,353.9,0.00,23.2,25.0,"02:09:52",1
"16/10/03","02:20",0.0,23.8,95.4,1008.3,345.6,0.1,1.1,350.7,0.00,23.1,25.0,"02:19:12",1
"16/10/03","02:30",0.0,23.7,95.5,1007.8,277.1,0.1,0.5,324.3,0.00,23.0,25.1,"02:20:32",1
"16/10/03","02:40",0.0,23.7,95.6,1007.8,280.1,0.0,0.3,252.3,0.00,23.0,25.1,"02:32:48",1
"16/10/03","02:50",0.0,23.6,95.6,1008.1,287.1,0.0,0.3,218.4,0.00,22.9,25.0,"02:45:52",1
"16/10/03","03:00",0.0,23.5,95.6,1008.1,239.2,0.0,0.3,235.1,0.00,22.8,24.9,"02:56:32",1
"16/10/03","03:10",0.0,23.5,95.8,1008.1,355.5,0.5,1.2,9.9,0.00,22.8,25.0,"03:09:44",1
"16/10/03","03:20",0.0,23.4,95.8,1007.8,346.1,0.3,1.1,352.8,0.00,22.7,24.7,"03:12:16",1
"16/10/03","03:30",0.0,23.4,96.0,1007.8,254.8,0.1,0.5,231.4,0.00,22.8,24.9,"03:22:40",1
"16/10/03","03:40",0.0,23.5,95.9,1007.1,278.8,0.0,0.5,348.9,0.00,22.8,24.9,"03:35:12",1
"16/10/03","03:50",0.0,23.4,96.0,1007.1,321.3,0.1,0.5,346.7,0.00,22.8,24.8,"03:43:52",1
"16/10/03","04:00",0.0,23.3,95.9,1007.1,344.4,0.1,0.6,337.4,0.00,22.6,24.8,"03:50:56",1
"16/10/03","04:10",0.0,23.2,96.0,1007.4,293.0,0.1,0.4,265.7,0.00,22.6,24.7,"04:03:52",1
"16/10/03","04:20",0.0,23.2,96.0,1007.6,320.7,0.2,0.5,346.0,0.00,22.6,24.7,"04:17:28",1
"16/10/03","04:30",0.0,23.2,96.2,1007.6,0.3,0.5,1.0,7.4,0.00,22.6,24.7,"04:26:48",1
"16/10/03","04:40",0.0,23.1,96.1,1007.6,304.5,0.2,1.0,348.1,0.00,22.5,24.7,"04:30:08",1
"16/10/03","04:50",0.0,23.0,96.2,1007.6,250.9,0.1,0.5,232.3,0.00,22.4,24.7,"04:45:28",1
"16/10/03","05:00",0.0,23.0,96.3,1007.6,297.2,0.1,0.3,247.6,0.00,22.4,24.8,"04:50:32",1
"16/10/03","05:10",0.0,23.1,96.4,1007.4,316.9,0.3,1.1,355.9,0.00,22.5,24.5,"05:08:08",1
"16/10/03","05:20",0.0,23.1,96.3,1007.6,345.6,0.5,1.2,338.4,0.00,22.5,24.7,"05:19:36",1
"16/10/03","05:30",0.0,23.0,96.4,1007.6,294.1,0.2,0.9,351.7,0.00,22.4,24.5,"05:20:32",1
"16/10/03","05:40",0.0,23.0,96.4,1007.4,284.5,0.2,0.9,226.7,0.00,22.4,24.7,"05:30:08",1
"16/10/03","05:50",0.0,23.0,96.5,1007.8,298.7,0.1,0.5,345.2,0.00,22.5,24.5,"05:46:56",1
"16/10/03","06:00",0.0,23.0,96.5,1007.4,349.2,0.5,1.3,11.7,0.00,22.5,24.6,"05:56:40",1
"16/10/03","06:10",0.0,23.0,96.5,1007.4,321.1,0.2,1.2,4.5,0.00,22.5,24.4,"06:09:52",1
"16/10/03","06:20",0.0,23.1,96.6,1007.4,348.2,0.3,1.1,346.5,0.00,22.6,24.6,"06:10:08",1
"16/10/03","06:30",0.0,23.1,96.6,1007.4,249.4,0.1,0.5,233.1,0.00,22.6,24.3,"06:24:48",1
"16/10/03","06:40",0.0,23.2,96.6,1007.6,329.6,0.3,0.9,348.8,0.00,22.7,24.4,"06:36:32",1
"16/10/03","06:50",0.0,23.2,96.6,1007.4,343.8,0.5,1.0,350.1,0.00,22.7,24.4,"06:42:48",1
"16/10/03","07:00",0.2,23.3,96.6,1007.4,236.6,0.3,0.9,226.2,0.00,22.8,24.5,"06:52:40",1
"16/10/03","07:10",0.0,23.3,96.6,1007.1,268.4,0.1,0.5,310.6,0.00,22.8,24.3,"07:01:12",1
"16/10/03","07:20",0.0,23.5,96.6,1007.6,255.7,0.1,0.5,233.7,0.00,23.0,24.5,"07:16:48",1
"16/10/03","07:30",0.0,23.5,96.6,1007.4,312.9,0.0,0.4,359.5,0.00,23.0,24.4,"07:20:02",1
"16/10/03","07:40",0.0,23.6,96.5,1007.6,326.0,0.5,1.0,343.1,0.01,23.1,24.4,"07:32:16",1
"16/10/03","07:50",0.0,23.7,96.5,1007.6,296.3,0.1,0.6,343.9,0.01,23.1,24.4,"07:48:16",1
"16/10/03","08:00",0.0,23.8,96.5,1007.6,267.6,0.0,0.5,210.9,0.02,23.2,24.5,"07:51:20",1
"16/10/03","08:10",0.0,23.9,96.4,1007.6,317.7,0.1,0.5,322.9,0.01,23.3,24.6,"08:02:32",1
"16/10/03","08:20",0.0,23.9,96.4,1007.6,320.9,0.3,0.6,344.7,0.01,23.3,24.5,"08:10:02",1
"16/10/03","08:30",0.2,24.1,96.4,1007.6,296.1,0.2,0.9,234.0,0.03,23.5,24.4,"08:27:20",1
"16/10/03","08:40",0.0,24.2,96.3,1007.4,249.8,0.1,0.5,203.8,0.02,23.6,24.4,"08:30:24",1
"16/10/03","08:50",0.0,24.2,96.2,1007.6,264.2,0.1,0.5,236.3,0.01,23.6,24.4,"08:46:56",1
"16/10/03","09:00",0.0,24.3,96.2,1007.6,288.5,0.1,0.4,255.7,0.02,23.7,24.6,"08:52:24",1
"16/10/03","09:10",0.2,24.4,96.0,1007.4,258.9,0.2,0.6,218.2,0.06,23.8,24.7,"09:03:04",1
"16/10/03","09:20",0.0,24.8,95.9,1007.6,302.0,0.2,0.8,353.4,0.11,24.1,24.7,"09:15:52",1
"16/10/03","09:30",0.0,25.0,94.4,1007.8,268.2,0.2,0.8,235.9,0.11,24.1,24.7,"09:23:04",1
"16/10/03","09:40",0.0,25.4,93.2,1007.1,352.4,0.5,1.1,352.7,0.11,24.3,24.9,"09:35:44",1
"16/10/03","09:50",0.0,25.7,93.0,1007.4,37.5,0.2,0.9,357.5,0.08,24.5,24.7,"09:42:24",1
"16/10/03","10:00",0.0,25.7,92.4,1006.9,319.7,0.1,0.5,352.8,0.06,24.4,24.7,"09:50:24",1
"16/10/03","10:10",0.0,25.9,91.8,1006.9,205.1,0.2,0.6,223.2,0.09,24.5,25.0,"10:05:12",1
"16/10/03","10:20",0.0,26.0,90.1,1006.7,210.6,0.2,0.8,221.7,0.12,24.3,24.9,"10:10:48",1
"16/10/03","10:30",0.0,26.5,90.0,1006.9,295.3,0.3,1.2,356.5,0.17,24.8,25.1,"10:23:12",1
"16/10/03","10:40",0.0,26.5,89.2,1006.7,327.0,0.6,1.4,337.6,0.12,24.6,25.1,"10:35:44",1
"16/10/03","10:50",0.0,26.6,88.3,1006.4,340.8,0.6,1.6,355.5,0.08,24.5,25.4,"10:40:02",1
"16/10/03","11:00",0.0,26.4,87.8,1006.9,312.9,0.2,1.1,329.3,0.05,24.3,25.3,"10:50:16",1
"16/10/03","11:10",0.0,26.5,87.6,1006.7,352.6,0.2,1.0,4.2,0.08,24.3,25.4,"11:07:36",1
"16/10/03","11:20",0.0,26.8,86.4,1006.9,336.4,0.2,0.8,314.4,0.09,24.4,25.5,"11:18:06",1
"16/10/03","11:30",0.0,26.7,87.7,1006.7,297.0,0.2,0.5,295.4,0.06,24.5,25.3,"11:20:08",1
"16/10/03","11:40",0.2,26.7,88.8,1006.2,288.7,0.2,0.8,236.2,0.07,24.7,25.5,"11:31:04",1
"16/10/03","11:50",0.2,26.5,89.2,1006.4,299.6,0.1,0.8,298.5,0.06,24.6,25.6,"11:44:16",1
"16/10/03","12:00",0.0,26.5,90.0,1006.2,316.9,0.1,0.4,313.9,0.06,24.8,25.6,"11:54:08",1
"16/10/03","12:10",0.0,26.4,90.3,1006.2,316.9,0.2,0.5,306.2,0.05,24.7,25.6,"12:05:52",1
"16/10/03","12:20",0.2,26.3,90.1,1006.2,300.4,0.2,0.4,261.9,0.06,24.6,25.6,"12:11:04",1
"16/10/03","12:30",0.2,26.1,90.0,1006.2,314.2,0.2,0.5,310.7,0.06,24.4,25.6,"12:25:04",1
"16/10/03","12:40",0.2,26.3,90.9,1006.0,288.4,0.1,0.8,234.3,0.07,24.7,25.6,"12:39:12",1
"16/10/03","12:50",0.0,26.1,91.1,1005.7,252.4,0.2,1.0,235.0,0.05,24.6,25.8,"12:44:40",1
"16/10/03","13:00",0.0,26.0,91.2,1005.5,280.8,0.3,0.6,230.1,0.04,24.5,25.7,"12:51:28",1
"16/10/03","13:10",0.2,26.0,91.5,1005.7,274.9,0.2,0.9,235.2,0.06,24.5,25.6,"13:05:44",1
"16/10/03","13:20",0.2,26.0,91.3,1005.5,298.9,0.1,0.5,310.9,0.07,24.5,25.4,"13:11:36",1
"16/10/03","13:30",0.0,26.0,91.0,1005.5,255.3,0.1,0.6,239.4,0.05,24.5,25.7,"13:25:36",1
"16/10/03","13:40",0.2,25.9,90.5,1004.8,276.4,0.3,1.2,223.8,0.04,24.3,25.6,"13:37:52",1
"16/10/03","13:50",0.0,25.4,88.0,1005.0,170.1,0.8,1.9,191.1,0.05,23.3,25.6,"13:42:32",1
"16/10/03","14:00",0.2,25.4,87.5,1005.2,30.8,0.2,0.6,182.7,0.05,23.2,25.4,"13:52:16",1
"16/10/03","14:10",0.2,25.2,88.5,1005.0,317.6,0.7,0.9,336.2,0.03,23.2,25.6,"14:01:04",1
"16/10/03","14:20",0.6,24.9,89.1,1005.0,352.3,0.7,1.6,348.9,0.02,23.0,25.6,"14:19:36",1
"16/10/03","14:30",0.4,24.6,90.5,1005.5,0.8,0.6,1.7,350.5,0.00,23.0,25.4,"14:20:32",1
"16/10/03","14:40",0.2,24.0,89.3,1005.7,218.6,0.7,2.1,196.9,0.01,22.2,25.5,"14:38:00",1
"16/10/03","14:50",0.2,23.5,87.2,1006.0,209.2,1.5,3.2,235.6,0.02,21.3,25.4,"14:41:36",1
"16/10/03","15:00",0.0,23.0,84.1,1006.2,204.3,1.5,2.9,216.3,0.03,20.2,25.4,"14:50:16",1
"16/10/03","15:10",0.0,23.1,84.9,1006.2,207.6,1.0,2.0,144.1,0.04,20.5,25.2,"15:00:08",1
"16/10/03","15:20",0.2,22.9,86.8,1006.4,223.7,0.8,2.6,233.2,0.02,20.6,25.3,"15:16:24",1
"16/10/03","15:30",0.4,22.7,87.2,1006.4,275.7,0.3,1.0,234.3,0.03,20.5,25.1,"15:21:44",1
"16/10/03","15:40",0.2,22.5,88.0,1006.7,317.4,0.5,1.2,331.6,0.02,20.5,25.1,"15:33:20",1
"16/10/03","15:50",0.8,22.3,89.5,1006.4,311.4,0.5,1.0,347.2,0.01,20.5,25.0,"15:44:16",1
"16/10/03","16:00",1.2,22.1,90.5,1006.9,327.8,0.6,1.7,353.9,0.01,20.5,25.0,"15:55:36",1
"16/10/03","16:10",0.4,21.8,91.6,1006.7,327.4,0.6,1.6,341.0,0.00,20.4,25.0,"16:06:22",1
"16/10/03","16:20",0.4,21.7,92.3,1006.4,319.9,0.6,1.6,336.6,0.00,20.4,24.7,"16:15:10",1
"16/10/03","16:30",0.4,21.5,92.7,1006.4,326.6,0.7,1.6,342.0,0.01,20.3,24.8,"16:22:32",1
"16/10/03","16:40",0.2,21.5,93.3,1006.2,315.2,0.6,1.3,340.4,0.00,20.4,24.7,"16:30:10",1
"16/10/03","16:50",0.0,21.5,93.6,1006.2,321.8,0.3,1.0,332.3,0.00,20.5,24.8,"16:42:40",1
"16/10/03","17:00",0.0,21.4,93.7,1006.2,283.4,0.1,0.4,275.5,0.00,20.4,24.6,"16:50:08",1
"16/10/03","17:10",0.0,21.3,94.0,1006.4,274.0,0.2,0.4,286.4,0.00,20.3,24.6,"17:00:40",1
"16/10/03","17:20",0.0,21.2,93.9,1006.2,289.1,0.2,0.5,303.1,0.00,20.2,24.7,"17:16:08",1
"16/10/03","17:30",0.0,21.1,94.1,1006.2,294.7,0.3,0.8,336.0,0.00,20.2,24.6,"17:22:16",1
"16/10/03","17:40",0.0,21.1,94.3,1006.4,280.1,0.3,0.6,305.7,0.00,20.2,24.7,"17:37:36",1
"16/10/03","17:50",0.0,21.0,94.5,1006.4,323.3,0.5,0.9,325.9,0.00,20.1,24.5,"17:44:48",1
"16/10/03","18:00",0.0,20.8,94.7,1006.4,301.1,0.3,0.6,341.8,0.00,20.0,24.5,"17:55:36",1
"16/10/03","18:10",0.0,20.7,94.9,1006.2,282.5,0.3,0.6,306.0,0.00,19.9,24.4,"18:04:32",1
"16/10/03","18:20",0.0,20.6,95.1,1006.2,296.2,0.5,0.6,321.5,0.00,19.8,24.3,"18:14:16",1
"16/10/03","18:30",0.0,20.5,95.3,1006.4,281.3,0.5,0.6,316.9,0.00,19.8,24.2,"18:20:48",1
"16/10/03","18:40",0.0,20.4,95.4,1006.4,299.8,0.3,0.6,304.5,0.00,19.7,24.2,"18:31:36",1
"16/10/03","18:50",0.0,20.4,95.6,1006.9,299.6,0.5,0.6,304.0,0.00,19.7,24.1,"18:42:40",1
"16/10/03","19:00",0.0,20.4,95.8,1006.4,299.0,0.2,0.5,276.4,0.00,19.7,24.1,"18:56:48",1
"16/10/03","19:10",0.0,20.3,95.8,1006.4,295.6,0.3,0.6,306.4,0.00,19.6,23.9,"19:06:56",1
"16/10/03","19:20",0.0,20.2,96.0,1006.4,330.4,0.6,0.9,317.7,0.00,19.6,23.9,"19:13:28",1
"16/10/03","19:30",0.0,20.1,96.1,1006.4,300.4,0.5,0.6,307.9,0.00,19.5,23.9,"19:23:52",1
"16/10/03","19:40",0.0,20.1,96.3,1006.4,328.9,0.6,1.4,356.4,0.00,19.5,24.0,"19:35:52",1
"16/10/03","19:50",0.0,20.0,96.4,1006.4,283.1,0.3,0.8,303.8,0.00,19.4,23.9,"19:43:12",1
"16/10/03","20:00",0.0,20.0,96.5,1006.2,291.5,0.2,0.5,282.2,0.00,19.5,23.9,"19:50:40",1
"16/10/03","20:10",0.0,20.0,96.6,1006.2,304.9,0.5,1.0,337.8,0.00,19.5,23.7,"20:05:44",1
"16/10/03","20:20",0.0,20.0,96.6,1006.9,312.5,0.7,1.3,356.0,0.00,19.5,23.4,"20:14:24",1
"16/10/03","20:30",0.0,19.9,96.6,1006.2,273.6,0.2,1.0,340.8,0.00,19.4,23.6,"20:20:32",1
"16/10/03","20:40",0.0,19.8,96.7,1006.2,259.1,0.3,0.8,296.7,0.00,19.3,23.7,"20:35:12",1
"16/10/03","20:50",0.0,19.8,96.9,1006.0,262.2,0.5,0.9,240.7,0.00,19.3,23.5,"20:48:24",1
"16/10/03","21:00",0.0,19.9,97.0,1006.2,322.6,0.5,1.0,336.7,0.00,19.4,23.4,"20:58:08",1
"16/10/03","21:10",0.0,19.9,96.9,1006.4,326.3,0.6,1.1,339.7,0.00,19.4,23.5,"21:05:04",1
"16/10/03","21:20",0.0,19.9,97.0,1006.7,284.0,0.5,0.6,315.0,0.00,19.4,23.4,"21:14:32",1
"16/10/03","21:30",0.0,19.9,97.1,1006.7,279.6,0.5,0.8,254.2,0.00,19.5,23.4,"21:28:24",1
"16/10/03","21:40",0.0,19.9,97.0,1006.7,301.1,0.5,0.6,293.8,0.00,19.4,23.3,"21:32:56",1
"16/10/03","21:50",0.0,19.9,97.1,1006.9,284.5,0.2,0.5,307.0,0.00,19.5,23.5,"21:48:16",1
"16/10/03","22:00",0.0,19.9,97.2,1006.7,327.4,0.5,1.2,336.6,0.00,19.5,23.3,"21:54:32",1
"16/10/03","22:10",0.0,19.8,97.2,1006.4,312.8,0.7,1.2,339.4,0.00,19.4,23.3,"22:04:24",1
"16/10/03","22:20",0.0,19.8,97.2,1006.4,289.5,0.3,0.8,322.9,0.00,19.4,23.2,"22:10:08",1
"16/10/03","22:30",0.0,19.8,97.3,1006.9,285.8,0.5,0.8,262.6,0.00,19.4,23.4,"22:23:44",1
"16/10/03","22:40",0.0,19.9,97.3,1006.9,298.3,0.5,1.1,336.2,0.00,19.5,23.2,"22:35:36",1
"16/10/03","22:50",0.0,19.9,97.3,1007.1,295.5,0.5,0.8,307.7,0.00,19.5,23.2,"22:48:16",1
"16/10/03","23:00",0.0,19.9,97.4,1007.1,302.5,0.6,1.3,342.7,0.00,19.5,23.1,"22:53:12",1
"16/10/03","23:10",0.0,19.9,97.4,1007.4,301.3,0.6,1.4,336.2,0.00,19.5,23.2,"23:00:56",1
"16/10/03","23:20",0.0,20.0,97.4,1006.9,325.0,0.7,1.7,356.5,0.00,19.6,23.2,"23:16:08",1
"16/10/03","23:30",0.0,19.9,97.3,1007.4,296.3,0.5,1.1,349.2,0.00,19.5,23.2,"23:25:44",1
"16/10/03","23:40",0.0,20.0,97.4,1007.4,308.3,0.6,1.2,349.9,0.00,19.6,23.1,"23:33:28",1
"16/10/03","23:50",0.0,20.0,97.3,1007.6,266.8,0.5,1.1,222.2,0.00,19.6,23.1,"23:44:56",1
"16/10/03","24:00",0.0,20.0,97.3,1007.8,284.7,0.3,0.8,2.4,0.00,19.6,22.8,"23:53:52",1
